Temp
11 12 15 15 15 16 16 17 17 17 17 18 18 19 19 20 20 20 21 21 22 22 23 23 23 24 25 24 24 23 20 21 24 25 24 24 25 25 24 23 24 23 21 22 22
11 11 15 14 15 16 16 16 17 17 17 18 18 19 19 20 19 20 21 21 22 22 23 23 23 24 21 23 22 20 19 23 24 24 24 24 24 23 25 23 23 22 21 22 22
11 11 12 15 15 15 16 16 17 17 17 18 18 19 19 20 19 20 20 21 22 22 23 23 24 23 23 23 23 22 21 24 23 23 23 24 25 22 23 23 22 21 19 19 20
11 11 11 13 15 15 15 16 17 17 18 18 19 19 19 19 21 20 20 21 21 22 23 23 24 23 23 23 23 24 24 25 24 22 24 24 22 24 22 23 24 22 19 18 17
11 11 12 12 14 15 16 16 17 17 17 18 19 19 19 19 20 20 20 21 21 22 22 23 23 23 23 23 23 23 24 23 21 22 22 22 22 23 22 21 21 20 19 18 17
11 11 12 12 14 15 15 16 16 17 18 18 18 19 19 20 19 19 20 20 21 21 22 23 23 23 24 23 22 22 23 23 22 22 22 22 21 22 22 21 21 20 17 16 16
11 11 12 13 13 14 15 16 16 17 17 18 18 18 18 20 19 19 20 20 21 21 22 22 23 23 23 23 22 22 22 22 21 21 22 21 21 20 19 23 22 19 18 17 17
11 11 12 14 14 14 15 15 16 16 17 18 18 18 18 19 18 19 20 20 20 21 22 22 23 21 22 21 22 22 21 21 21 20 21 21 19 22 21 20 20 19 17 17 18
11 11 12 13 14 14 14 15 16 16 17 17 17 18 19 18 18 19 20 20 20 21 21 22 22 20 21 18 18 20 19 20 22 21 20 20 20 21 20 22 21 18 18 18 17
11 11 11 12 13 13 14 15 15 16 17 17 17 18 17 18 18 18 20 20 20 19 20 21 18 17 16 16 17 19 20 21 21 20 20 19 17 18 18 20 19 18 18 18 18
11 11 12 12 12 13 15 15 14 14 16 16 17 18 17 17 17 18 19 20 20 20 18 20 17 16 17 17 20 21 21 20 21 20 20 18 17 18 18 18 17 17 16 17 18
11 11 12 12 13 13 14 14 14 14 15 16 17 17 18 18 17 17 19 18 18 17 18 17 17 18 19 20 20 21 21 20 20 20 20 19 18 18 18 19 21 20 18 17 18
10 11 12 12 12 14 14 14 14 14 15 17 16 16 16 17 18 16 17 18 18 17 17 16 19 18 20 21 21 21 20 20 20 19 19 17 16 17 19 18 19 18 18 18 18
8 10 11 12 12 13 14 14 14 15 14 16 15 16 16 16 18 17 18 19 19 17 17 17 19 20 19 19 19 20 19 20 20 18 17 18 15 16 20 21 21 20 18 18 17
7 8 10 11 11 13 13 14 14 14 11 16 15 15 15 17 16 16 16 18 17 17 17 17 18 18 18 19 19 18 19 20 20 18 17 17 15 15 17 19 19 20 19 18 17
8 9 10 10 11 11 13 14 15 13 12 15 13 14 15 16 15 15 16 17 18 19 17 17 17 19 18 16 19 17 18 17 16 15 14 15 16 16 19 21 22 24 23 20 21
7 8 9 9 10 10 11 11 12 13 16 14 13 14 15 14 14 15 14 15 15 16 16 17 17 17 17 16 16 18 16 14 14 12 14 15 16 17 19 21 23 24 22 20 21
7 8 8 9 10 10 11 10 12 12 15 15 14 14 14 14 14 14 14 13 15 16 14 15 15 16 16 17 16 15 16 13 13 13 14 14 16 19 18 22 22 22 19 17 16
6 7 8 9 10 10 10 10 11 12 15 14 14 14 14 15 14 15 13 13 14 15 16 15 16 16 15 17 17 15 15 16 15 6 10 14 15 18 18 20 18 16 16 15 15
5 7 8 9 9 10 10 10 11 13 14 15 15 15 13 14 14 14 14 15 16 15 16 17 17 14 15 17 16 16 16 15 12 12 12 14 15 17 18 19 18 17 17 16 15
5 5 8 9 9 10 11 10 12 14 14 14 14 15 15 14 13 13 14 15 15 16 15 16 15 14 15 14 14 14 15 16 15 12 12 12 15 15 18 18 19 19 17 18 17
5 5 8 8 8 9 10 12 13 13 13 13 14 14 14 14 14 14 14 13 12 15 15 15 14 11 14 15 15 16 15 15 13 13 12 12 17 17 16 19 17 18 18 18 17
4 5 7 7 7 7 10 11 12 12 12 13 13 14 14 13 13 14 12 11 11 11 12 13 12 8 12 14 14 15 15 16 16 11 13 11 17 17 16 15 15 17 16 16 15
3 4 5 6 6 7 9 10 10 11 12 13 13 14 13 12 13 13 12 12 11 11 11 12 11 11 11 12 13 12 11 12 13 9 13 14 15 17 16 15 15 14 16 16 15
4 4 5 5 4 7 7 9 9 10 11 11 12 12 13 12 12 12 11 11 11 11 10 11 10 10 11 11 12 11 11 11 12 12 12 14 14 15 16 16 16 15 15 15 15
4 4 3 5 6 5 6 7 8 10 10 10 10 11 11 11 12 11 11 11 11 10 10 9 7 10 9 10 11 10 10 11 12 12 13 14 13 16 16 15 14 14 14 14 15
3 3 4 4 6 5 6 6 8 10 10 10 10 10 10 10 10 8 8 8 9 8 8 9 8 8 5 9 9 7 10 10 11 12 13 13 14 15 14 13 11 11 11 10 10
Height
788 789 787 789 791 791 793 792 793 793 794 794 792 792 792 793 792 792 792 795 794 796 797 797 797 797 796 798 799 802 834 838 826 818 821 811 814 809 809 814 813 814 818 819 824
785 787 787 788 789 791 790 793 792 793 793 791 792 792 792 792 792 791 792 794 793 795 796 796 798 798 803 802 804 816 838 825 812 811 815 810 810 813 815 818 818 819 818 819 823
785 786 786 786 788 790 791 792 791 794 792 791 790 791 791 788 792 790 791 792 793 795 796 796 796 798 803 803 805 811 829 812 814 811 810 810 809 811 817 823 816 817 819 819 822
784 785 786 786 787 789 791 791 790 792 791 790 790 790 789 790 802 791 790 791 793 794 796 795 796 802 807 810 804 814 806 808 810 811 810 812 812 812 814 812 805 807 810 815 819
783 785 784 786 787 789 788 788 789 790 789 788 788 788 790 791 791 790 789 791 792 795 795 795 799 801 808 807 806 813 809 809 812 811 813 812 815 815 812 806 806 805 809 811 814
784 785 784 785 784 784 787 788 789 787 787 787 788 788 789 797 790 790 790 791 792 795 795 795 797 798 802 806 810 810 810 810 812 812 813 817 817 813 807 801 805 808 810 809 810
783 783 784 783 785 785 786 786 786 786 787 788 787 789 790 791 790 790 789 791 793 794 796 794 794 797 800 807 805 808 816 814 813 813 816 816 822 818 803 799 804 808 810 808 806
781 781 782 782 784 785 784 785 786 788 788 788 788 791 792 790 789 790 791 791 793 794 795 794 794 798 802 804 809 815 819 830 814 815 816 817 834 808 799 804 805 806 807 808 804
781 782 782 782 782 783 784 784 785 787 786 787 788 790 791 789 789 789 790 790 793 795 795 795 795 804 808 820 831 824 839 832 819 813 818 820 826 808 802 802 805 808 806 804 802
779 781 782 782 783 784 783 783 784 786 786 789 789 793 791 789 788 790 791 792 792 795 797 799 804 818 823 829 847 833 832 824 823 818 818 824 826 815 805 805 805 803 801 798 797
779 780 780 780 783 783 784 785 790 790 787 786 785 785 785 788 788 791 792 791 792 796 809 802 819 826 819 817 812 813 817 826 817 814 819 826 823 816 806 803 804 800 798 794 789
777 778 778 779 782 785 783 783 785 786 788 782 782 784 783 784 791 791 792 796 798 808 805 816 821 811 807 809 811 812 818 823 817 814 817 821 820 809 804 794 786 785 788 787 783
775 776 777 780 781 784 784 785 785 785 789 782 781 783 785 785 788 789 791 792 798 807 809 817 806 801 805 809 812 813 822 820 824 819 818 823 827 811 795 790 783 780 778 776 774
773 773 775 778 784 782 783 784 785 785 794 784 784 780 781 781 787 784 786 790 795 806 808 810 800 802 807 812 812 821 814 815 819 830 841 823 848 819 796 789 781 776 774 771 768
773 774 774 777 778 780 783 783 785 785 821 779 781 779 778 783 783 788 786 788 799 799 803 808 804 808 811 809 809 819 810 813 816 829 831 835 848 820 803 796 785 772 771 770 765
775 773 773 774 776 778 779 782 785 799 805 780 781 782 784 782 787 789 788 787 790 795 799 803 800 800 804 810 805 811 817 825 831 840 852 836 833 826 802 788 776 767 766 768 764
776 773 773 772 774 775 778 782 791 790 766 779 781 780 780 786 788 788 794 797 802 811 811 805 805 802 802 814 812 811 826 852 857 865 850 828 832 812 789 778 772 767 768 769 766
775 773 772 773 773 773 778 787 783 778 768 766 772 777 781 781 787 788 794 801 795 793 812 816 820 807 802 805 814 819 821 847 860 859 844 831 824 797 782 770 769 768 770 774 773
774 772 771 773 774 775 778 786 777 777 767 770 773 777 779 776 782 786 795 797 791 791 799 810 807 795 797 796 798 820 824 816 833 887 865 832 809 789 780 777 777 778 779 777 775
773 772 771 773 775 776 778 782 776 769 767 765 767 769 781 779 782 786 790 781 781 780 781 786 801 803 801 795 800 804 808 828 843 857 862 831 820 804 788 783 784 781 780 779 776
773 775 772 773 774 777 773 776 774 768 767 769 769 768 769 777 780 785 784 781 779 778 780 787 796 810 801 805 807 812 813 812 818 834 848 844 812 785 779 783 779 780 780 776 774
774 779 772 773 778 774 772 767 766 768 769 773 771 772 772 772 777 780 779 785 785 778 785 787 799 822 807 797 796 797 805 808 827 830 832 831 790 774 777 775 779 779 777 775 775
775 774 773 772 779 779 770 768 767 767 768 769 770 769 772 777 784 779 784 788 786 790 792 790 806 843 816 806 801 800 802 799 803 823 816 842 784 769 778 782 780 781 781 780 779
775 779 776 774 774 773 771 769 770 766 767 766 767 766 770 778 780 780 787 787 788 792 794 792 804 809 815 807 808 815 817 812 811 837 812 806 790 774 787 787 782 781 776 775 775
775 775 770 777 779 773 774 765 768 769 766 768 769 769 771 779 780 781 789 792 792 792 797 800 809 811 806 809 812 817 817 814 813 812 814 795 806 770 785 782 781 779 775 775 775
772 773 770 771 768 776 776 771 765 766 767 770 772 771 773 776 775 781 781 788 790 799 800 806 824 813 817 810 810 815 812 811 807 804 802 798 797 779 775 776 782 778 776 774 771
769 771 773 770 766 773 769 768 764 764 764 765 770 774 775 776 779 785 786 787 789 800 806 809 814 822 843 818 817 833 802 803 797 793 793 797 785 776 777 781 787 785 782 782 779
Wind_Speed
9 10 9 8 7 6 5 3 2 2 0 1 3 4 5 6 1 2 1 2 2 4 5 5 4 3 2 2 2 3 4 2 3 3 5 5 3 4 2 6 2 2 5 5 27
9 8 10 9 7 6 6 4 3 2 1 2 2 4 5 4 1 3 3 3 3 4 6 5 3 5 2 2 1 4 4 4 2 2 3 6 5 6 3 4 2 4 3 20 28
9 8 8 9 8 6 5 5 4 1 1 2 3 5 5 1 1 1 5 4 5 6 3 1 2 4 1 3 3 4 5 3 3 3 3 3 3 6 6 3 7 9 9 16 23
10 9 7 8 7 6 5 4 3 1 1 3 3 5 3 3 3 1 4 5 5 5 4 1 2 2 3 3 3 2 3 3 1 2 2 2 4 1 6 6 2 7 15 15 9
9 9 7 6 8 6 4 3 2 1 1 3 5 5 2 2 2 1 3 5 6 6 5 3 2 2 1 2 4 3 1 4 5 3 1 2 1 4 5 8 5 7 15 15 13
10 9 8 6 5 5 3 3 3 1 2 3 5 4 2 1 3 2 4 5 5 4 4 2 3 3 1 3 4 2 2 1 4 4 1 1 3 1 7 7 5 7 11 11 11
10 8 7 6 5 5 4 4 4 2 2 2 5 3 1 4 3 4 6 5 6 2 3 3 2 3 1 3 2 2 2 4 4 5 2 3 5 8 9 2 6 9 8 10 14
8 7 6 5 4 3 3 3 4 5 3 1 2 0 3 4 4 5 6 5 4 3 3 4 3 4 3 3 3 3 3 1 3 8 3 4 7 7 5 8 10 8 8 9 11
8 7 6 5 3 1 1 2 4 4 3 1 1 1 2 4 3 5 6 5 7 4 3 4 3 4 1 6 4 2 2 5 3 4 3 3 5 5 6 3 6 8 9 9 10
8 8 7 5 3 1 3 3 1 2 2 2 1 2 1 3 4 4 6 10 3 4 4 2 4 3 3 4 5 5 3 3 4 4 4 4 9 10 10 6 10 10 10 10 10
7 7 6 5 2 2 3 2 2 2 3 5 4 3 5 4 5 3 3 5 4 3 4 1 4 6 10 8 5 4 4 1 1 4 4 6 8 11 10 9 9 10 11 11 12
8 7 6 3 2 1 3 2 1 1 1 8 4 2 3 5 3 3 6 5 4 5 4 5 3 10 5 5 6 3 3 3 2 2 3 6 11 11 8 11 15 14 10 11 7
5 6 9 7 4 1 4 2 3 1 1 3 4 4 5 8 4 8 9 4 4 5 6 6 5 8 5 2 4 2 4 3 5 1 2 4 8 7 7 5 8 8 10 8 12
6 5 7 8 3 4 1 2 2 0 2 4 6 5 4 6 2 1 14 4 3 10 7 6 5 3 5 4 5 2 0 4 4 3 3 3 6 6 7 13 5 10 9 11 10
6 4 7 15 4 8 4 9 3 1 1 1 4 1 2 6 7 1 1 2 7 6 7 7 6 7 4 5 5 6 3 2 2 2 2 4 1 8 5 6 11 9 7 8 9
5 4 2 9 4 6 10 9 2 4 7 3 4 4 6 2 2 3 3 3 3 2 4 3 1 2 6 2 2 8 5 7 5 3 3 8 8 4 4 5 3 2 3 5 5
6 3 3 2 3 8 12 5 4 6 4 5 4 6 4 5 3 3 6 6 7 5 5 2 3 2 3 6 7 5 6 2 3 2 6 4 1 6 6 5 4 4 4 4 5
7 3 0 2 2 10 9 3 4 7 2 2 5 6 6 6 4 6 7 5 5 2 4 7 5 8 5 7 8 7 7 6 7 4 4 5 6 4 7 4 5 3 6 5 7
6 2 0 3 5 9 3 2 3 4 2 6 4 4 4 3 6 5 7 6 8 8 7 6 6 2 3 4 9 5 6 6 4 2 3 5 7 8 9 7 10 11 8 8 7
5 3 1 4 6 5 1 4 3 3 4 6 4 6 6 7 5 5 8 4 5 10 4 3 1 4 2 3 3 6 5 3 2 3 4 5 5 8 10 9 4 6 6 6 5
1 2 3 5 6 2 5 5 5 2 5 5 5 2 2 6 6 6 8 3 2 3 10 5 3 3 2 4 8 3 2 2 4 5 5 2 7 7 8 7 4 3 4 4 5
1 2 3 9 3 2 4 4 2 7 4 2 2 2 2 4 3 6 4 3 8 1 8 1 4 4 6 3 2 3 5 6 4 3 4 3 13 3 10 4 8 5 6 3 3
1 2 1 4 4 3 3 4 2 5 6 6 9 6 5 2 1 0 4 1 8 5 2 2 1 3 6 3 3 3 2 3 1 4 12 4 14 2 6 9 6 6 7 6 8
1 2 2 1 1 2 5 5 8 6 3 3 4 3 4 6 5 2 2 2 3 4 8 6 2 4 6 4 3 3 4 4 2 3 3 14 20 21 8 11 12 11 13 14 8
1 3 4 5 4 7 1 5 9 6 4 6 2 6 7 5 5 5 4 3 2 6 5 5 5 2 3 2 3 3 6 5 5 6 5 14 10 29 15 14 11 9 8 9 7
3 2 3 1 5 11 7 5 8 7 7 4 4 8 6 5 5 7 8 5 4 2 3 1 3 2 2 5 5 6 11 10 12 16 14 20 22 23 21 14 6 9 10 11 12
6 3 1 4 4 5 6 4 3 4 3 7 8 4 1 3 6 4 5 4 7 8 3 5 5 3 4 1 4 5 11 12 7 6 8 14 20 19 14 11 5 9 7 6 7
Wind_Direction
201 187 178 179 183 168 167 161 152 124 148 348 354 356 348 329 333 124 139 198 160 171 150 139 145 166 97 85 58 71 65 297 280 323 160 177 112 342 142 118 92 92 134 167 160
204 198 181 175 173 175 154 170 147 150 112 29 359 356 337 333 236 213 173 202 185 173 159 161 156 147 36 127 35 93 113 234 318 71 156 169 133 177 124 129 114 80 60 148 160
204 201 186 176 168 176 174 171 143 180 84 29 11 351 340 38 87 214 194 185 184 178 162 301 271 149 127 118 167 171 172 206 4 28 29 119 110 182 141 219 199 192 168 154 159
201 195 190 179 178 175 174 164 139 179 63 31 18 347 357 125 161 307 179 177 175 174 164 103 36 104 128 155 210 134 246 128 143 32 22 66 319 346 172 217 152 187 169 164 170
205 197 186 192 176 179 188 165 181 234 23 17 9 352 137 90 236 166 155 165 158 166 167 152 134 155 179 238 120 131 276 87 133 91 360 357 264 236 265 247 260 124 158 178 180
210 203 189 195 187 191 204 205 235 286 351 1 0 351 85 232 159 172 143 151 145 170 191 155 128 176 178 77 113 148 66 169 177 162 203 245 272 72 263 242 199 160 185 189 187
213 209 207 202 204 195 205 247 259 250 280 338 5 8 65 224 187 165 139 151 162 158 191 143 88 96 96 100 182 74 23 328 206 181 177 178 306 230 232 281 214 210 205 202 206
211 205 197 193 212 213 204 247 263 258 243 310 1 85 218 175 161 163 140 119 141 151 149 157 117 98 98 137 63 108 60 63 300 144 217 126 269 288 294 186 219 229 220 223 225
187 185 166 157 161 210 243 280 281 258 230 171 116 149 257 144 147 170 158 136 117 105 102 127 90 127 42 108 37 345 211 205 306 183 130 173 253 260 357 20 222 232 249 241 240
188 178 162 139 118 66 330 308 205 156 146 143 257 63 181 189 143 163 163 151 130 120 68 73 68 90 37 94 190 192 201 282 215 233 154 205 258 274 288 243 244 244 241 236 238
193 181 159 130 115 45 69 118 49 29 216 193 195 153 130 121 123 191 163 140 109 67 138 183 97 184 207 199 183 148 131 201 219 218 170 231 261 269 270 287 266 250 240 240 237
211 208 191 165 152 48 44 79 169 98 296 218 139 85 119 165 114 186 174 139 135 174 129 45 210 226 211 213 208 184 180 249 319 171 156 272 272 264 254 250 251 255 253 239 245
174 201 209 220 201 256 32 99 106 134 119 249 185 173 194 157 199 189 159 167 147 164 165 155 219 201 156 170 148 172 171 222 218 354 288 335 288 289 289 252 268 254 245 247 231
69 158 202 210 263 171 159 186 227 184 96 229 211 226 140 146 221 216 182 156 170 184 172 210 240 108 158 186 146 221 211 237 258 61 233 87 288 288 266 275 279 275 258 251 263
36 6 158 178 199 176 182 204 253 235 129 171 132 27 114 171 140 293 156 57 161 189 134 229 185 168 174 202 152 202 160 110 110 149 67 303 266 276 264 279 267 272 284 278 264
2 26 93 164 182 165 172 187 179 68 235 165 130 159 130 100 54 114 119 60 151 180 80 179 159 157 162 71 167 154 75 39 38 73 293 206 192 269 237 222 301 340 60 38 62
336 12 85 101 155 165 159 125 155 198 170 190 175 164 154 147 118 133 151 163 155 135 186 141 214 100 119 79 5 100 91 345 336 359 233 324 238 249 274 260 249 328 319 342 21
338 305 110 156 124 142 129 86 208 189 206 141 124 126 163 141 181 163 129 178 264 140 132 160 262 158 188 180 173 192 160 162 197 205 265 327 239 252 244 293 16 324 343 41 4
333 353 132 157 180 164 95 141 203 231 309 141 122 120 202 131 131 134 170 190 200 180 167 168 239 113 126 147 151 207 213 178 86 47 43 239 296 289 272 336 341 356 28 22 6
337 342 247 183 159 123 107 188 251 198 311 197 162 178 168 161 120 153 168 213 202 184 189 190 120 4 1 98 27 145 174 75 5 153 243 262 278 223 307 313 49 49 14 340 1
323 69 145 184 143 117 217 178 207 258 109 25 12 39 75 169 146 176 191 21 341 169 177 161 128 305 127 201 169 126 193 164 146 155 174 273 256 217 192 140 151 70 353 357 350
284 139 185 161 145 222 201 173 142 180 149 167 341 2 105 39 148 190 137 42 322 53 137 211 143 170 200 248 157 129 184 163 162 240 223 181 266 148 136 166 101 58 29 359 285
167 188 321 181 179 193 213 187 180 205 179 182 193 185 79 118 341 293 99 35 31 54 72 339 32 56 355 1 354 160 193 192 173 92 240 129 259 120 26 327 327 15 342 319 305
20 137 355 342 78 137 169 189 192 197 206 205 195 166 130 173 212 148 113 24 63 102 69 61 60 156 177 111 30 65 11 14 5 167 236 230 281 277 321 315 325 339 326 323 315
185 239 187 185 246 211 357 200 189 190 201 163 226 196 183 193 193 200 118 120 75 133 56 135 217 227 231 185 115 210 268 268 255 272 259 277 283 284 290 290 295 300 300 310 310
161 204 344 182 152 176 218 227 197 187 159 212 166 207 205 197 178 203 146 163 167 74 111 102 169 191 285 227 234 243 232 221 230 247 246 255 257 269 277 282 308 297 306 310 321
165 133 25 282 170 152 219 161 134 174 226 178 192 193 188 247 119 100 79 80 145 137 131 151 133 123 276 139 159 299 238 206 207 214 222 243 253 268 289 328 16 320 0 16 354